Flag for U.S.A. Weather past 2 weeks in Decatur, Illinois, U.S.A.

Now
80 °F

Passing clouds.


Feels Like: 80 °F
Forecast: 57 / 80 °F
Wind: 6 mph from Northwest

Location: Decatur Airport

Current Time: Jul 30, 2014 at 6:17:45 PM

Latest Report: Jul 30, 2014 at 5:54 PM


Visibility: 10 mi

Pressure: 30.03 "Hg

Humidity: 45%

Dew point: 57 °F

Location of DecaturLocation

Historic Weather in Decatur — Graph

°F

Decatur temperature yesterday

Maximum temperature yesterday: 77 °F (at 2:54 PM)
Minimum temperature yesterday: 59 °F (at 12:54 AM)
Average temperature yesterday: 69 °F

Past Weeks' High & Low Weather Summary

 TemperatureHumidityPressure
High86 °F (Jul 27, 12:54 PM)100% (Jul 24, 7:54 AM)30.16 "Hg (Jul 24, 7:54 AM)
Low53 °F (Jul 19, 5:54 AM)42% (Jul 16, 3:54 PM)29.77 "Hg (Jul 27, 4:54 AM)
Average70 °F72%30.03 "Hg
* Reported Jul 15 4:54 PM — Jul 30 4:54 PM, Decatur, Weather by CustomWeather, © 2014

Note: Actual official high and low records may vary slightly from our data, if they occured in-between our weather recording intervals... More about our weather records

Advertising

Decatur weather history for previous 24 hours

 ConditionsComfort  
Time TempWeatherWind HumidityBarometerVisibility
4:54 PM
Jul 30
81 °FPartly sunny.10 mph44%30.03 "Hg10 mi
3:54 PM81 °FScattered clouds.10 mph42%30.04 "Hg10 mi
2:54 PM81 °FPartly sunny.7 mph45%30.05 "Hg10 mi
1:54 PM78 °FBroken clouds.12 mph46%30.06 "Hg10 mi
12:54 PM79 °FPassing clouds.9 mph48%30.06 "Hg10 mi
11:54 AM79 °FPassing clouds.13 mph50%30.07 "Hg10 mi
10:54 AM77 °FSunny.9 mph54%30.08 "Hg10 mi
9:54 AM74 °FSunny.7 mph62%30.08 "Hg10 mi
8:54 AM71 °FSunny.6 mph68%30.08 "Hg10 mi
7:54 AM67 °FSunny.7 mph73%30.07 "Hg10 mi
6:54 AM62 °FSunny.6 mph86%30.06 "Hg10 mi
5:54 AM63 °FClear.6 mph81%30.05 "Hg10 mi
4:54 AM63 °FClear.7 mph81%30.05 "Hg10 mi
3:54 AM64 °FClear.7 mph78%30.05 "Hg10 mi
2:54 AM64 °FClear.7 mph78%30.05 "Hg10 mi
1:54 AM64 °FClear.6 mph78%30.06 "Hg10 mi
12:54 AM64 °FClear.6 mph78%30.06 "Hg10 mi
11:54 PM
Jul 29
66 °FClear.5 mph75%30.06 "Hg10 mi
10:54 PM67 °FClear.5 mph73%30.06 "Hg10 mi
9:54 PM69 °FClear.5 mph66%30.06 "Hg10 mi
8:54 PM71 °FSunny.6 mph61%30.05 "Hg10 mi
7:54 PM73 °FSunny.5 mph55%30.05 "Hg10 mi
6:54 PM75 °FSunny.9 mph50%30.05 "Hg10 mi
Weather by CustomWeather, © 2014

See weather overviewHow to use our weather pages